Regional Weather Roundup
Issued by NWS

Home | Current Version | Previous Version | Graphics & Text | Print | Product List | Glossary On
Versions: 1 2 3 4 5 6 7 8 9 10 11 12 13 14 15 16 17 18 19 20 21 22 23 24 25 26 27 28 29 30 31 32 33 34 35 36 37 38 39 40 41 42 43 44 45 46 47 48 49 50
000
ASUS44 KMEG 291800
RWRTN
TENNESSEE HOURLY STATE WEATHER ROUNDUP
NATIONAL WEATHER SERVICE MEMPHIS TN
100 PM CDT SAT APR 29 2017

TNZ002-004-019-021-049-052-054-088>092-291900-
WEST TENNESSEE

CITY           SKY/WX    TMP DP  RH WIND       PRES   REMARKS
MEMPHIS INTL   PTSUNNY   84  70  62 S23G36    29.86F
NWS MEMPHIS      N/A     85 N/A N/A MISG        N/A
JACKSON        MOSUNNY   84  69  60 S16G23    29.91F
DYERSBURG      PTSUNNY   83  69  62 S12G21    29.88F
$$

TNZ008-025-027-028-033-062-065-066-291900-
NORTH MIDDLE TENNESSEE

CITY           SKY/WX    TMP DP  RH WIND       PRES   REMARKS
NASHVILLE      CLOUDY    87  64  46 SW12G21   29.99F
CLARKSVILLE    MOSUNNY   84  67  56 SE9       29.96F
SMYRNA         CLOUDY    89  67  47 S15G23    29.99F HX  92
CROSSVILLE     MOSUNNY   81  64  56 S13G26    30.11F
$$

TNZ061-075-076-078-094-096-097-291900-
SOUTH MIDDLE TENNESSEE

CITY           SKY/WX    TMP DP  RH WIND       PRES   REMARKS
TULLAHOMA      SUNNY     84  63  48 S18       30.04F
WINCHESTER     MOSUNNY   88  66  48 S14       30.04F HX  90
COLUMBIA       MOSUNNY   84  72  65 S12       29.97S
SHELBYVILLE    SUNNY     88  70  55 S17       30.01F HX  92
$$

TNZ017-018-042-046-047-291900-
NORTHEAST TENNESSEE

CITY           SKY/WX    TMP DP  RH WIND       PRES   REMARKS
TRI CITIES     PTSUNNY   87  66  49 VRB7      30.12F
$$

TNZ012-013-036-069-073-074-291900-
CENTRAL EAST TENNESSEE

CITY           SKY/WX    TMP DP  RH WIND       PRES   REMARKS
KNOXVILLE      PTSUNNY   87  64  46 SW18      30.07F
OAK RIDGE      MOSUNNY   89  62  40 VRB6G22   30.09F
GATLINBURG     MOSUNNY   86  66  51 NW6       30.07F
$$

TNZ083-085-099-291900-
SOUTHEAST TENNESSEE

CITY           SKY/WX    TMP DP  RH WIND       PRES   REMARKS
CHATTANOOGA    PTSUNNY   87  66  49 S13G25    30.07F
$$

SKY/WX REPORTED AS FAIR MEANS FEW OR NO CLOUDS BELOW
12 THOUSAND FEET.





USA.gov is the U.S. government's official web portal to all federal, state and local government web resources and services.